Location: Grange Rosano
(44.4500°N, 6.9667°E)
Time: 21:23:03
(UTC+00:00)

Lacrosse 5 - Pass Details

Date: 26 May 2022
Orbit: 714 x 724 km, 57.0° (Epoch: 09 March)

Event Time Altitude Azimuth Distance (km) Brightness Sun altitude
Exits shadow 02:37:42 10° 260° (W) 2,237 3.9 -11.6°
Reaches altitude 10° 02:37:46 10° 261° (W) 2,212 3.9 -11.6°
Maximum altitude 02:42:33 39° 330° (NNW) 1,072 2.9 -11.0°
Drops below altitude 10° 02:47:21 10° 40° (NE) 2,216 6.0 -10.4°
Sets 02:49:53 0° 48° (NE) 3,137 7.6 -10.0°
